﻿Date,Wind Spd (mph),Daily Max Wind (mph),Time of Max Wind,Max Wind Dir (°)
4/15/24,5.5,19.1,0151,NW | 319
4/14/24,13.7,32.6,0257,NW | 316
4/13/24,10.9,45.8,1752,NW | 326
4/12/24,6.8,39.9,1408,N | 10
4/11/24,4.6,26.7,1748,N | 3
4/10/24,5.2,18.8,1637,NW | 314
4/9/24,4.9,14.8,1636,SE | 127
4/8/24,9.6,24.2,1251,SSE | 148
4/7/24,9.4,19,0559,NW | 319
4/6/24,16.8,38.4,1442,NNW | 337
4/5/24,12.4,38.3,1036,N | 10
4/4/24,9,48.2,0347,NNW | 347
4/3/24,14.4,46.3,1756,N | 7
4/2/24,6.3,19.2,0412,S | 186
4/1/24,9.6,27.4,1756,SE | 131
3/31/24,17.2,34.3,0354,NNW | 331
3/30/24,11.2,47.2,0640,NNW | 329
3/29/24,6.3,32.2,0821,WNW | 291
3/28/24,13.3,53.3,0640,N | 356
3/27/24,13.2,44.2,1337,NW | 316
3/26/24,11.8,30.3,0244,NW | 320
3/25/24,12.5,33.7,1729,N | 8
3/24/24,12.3,33.3,0337,NNW | 336
3/23/24,13.1,43.2,0734,NNE | 18
3/22/24,11.2,41.3,1721,N | 11
3/21/24,19.6,34.4,0631,NW | 326
3/20/24,11,32.9,0042,NW | 319
3/19/24,,11.8,1238,SSE | 162
3/18/24,5.8,19.2,1719,SE | 126
3/17/24,9,19.5,1044,SE | 137
3/16/24,7.4,22.4,1157,SE | 136
3/15/24,12.4,27.4,1538,SE | 142
3/14/24,19,43.1,0626,S | 172
3/13/24,11.5,33.3,1309,ESE | 108
3/12/24,20,40,0348,WNW | 292
3/11/24,20.4,40,1709,NW | 316
3/10/24,22.2,44.2,1538,NW | 318
3/9/24,16.1,38.7,2243,NW | 315
3/8/24,7.1,25.2,2356,NW | 316
3/7/24,4.9,18.9,2004,SE | 144
3/6/24,7.2,29,0001,NNW | 340
3/5/24,15.9,40.5,1048,NNW | 333
3/4/24,19.7,51.3,0037,NW | 320
3/3/24,25.8,71.4,0439,NW | 306
3/2/24,23.3,97.6,0414,N | 4
3/1/24,12.8,54.7,2326,WSW | 241
2/29/24,14.1,63.4,2232,N | 358
2/28/24,13.8,34.3,2048,N | 2
2/27/24,12.8,47.1,0139,N | 5
2/26/24,16.7,54.9,1454,NW | 312
2/25/24,10.7,33.6,2013,NW | 314
2/24/24,6.3,27.7,2232,WNW | 299
2/23/24,2,8.1,1830,SSW | 194
2/22/24,3.5,15.8,0017,NW | 310
2/21/24,12.1,33,0638,NW | 318
2/20/24,6.2,33.7,2357,N | 1
2/19/24,9.5,56.3,0610,N | 5
2/18/24,9.1,37.5,0153,NW | 316
2/17/24,8,64.3,1404,N | 357
2/16/24,9.2,28.9,0034,NW | 313
2/15/24,14.2,51.7,0206,NNE | 19
2/14/24,16.4,48.2,2031,N | 351
2/13/24,15.1,32.2,1440,NNW | 330
2/12/24,9.3,25.7,1405,NW | 326
2/11/24,4,12.1,1346,SSE | 153
2/10/24,7.6,24.3,0005,S | 169
2/9/24,10.8,30.3,0624,NNW | 339
2/8/24,9.9,29.6,0201,NNW | 328
2/7/24,13.7,43.1,1231,NNE | 14
2/6/24,,20.9,0816,NNW | 331
2/5/24,6,43.8,0245,NE | 35
2/4/24,,68.3,2204,NNW | 339
2/3/24,7.9,33.2,0059,NW | 326
2/2/24,13,38.4,1231,NNW | 334
2/1/24,9.4,31.3,1524,NW | 304
1/31/24,6.9,42.3,1647,NNE | 17
1/30/24,6.4,27,2132,NW | 314
1/29/24,1.7,9.9,2101,NW | 326
1/28/24,2.6,10.2,1512,SE | 129
1/27/24,2.7,8.7,0613,SW | 236
1/26/24,3.5,10.9,0101,NNE | 31
1/25/24,9,44,0120,NNE | 21
1/24/24,16.2,37.8,0336,NW | 326
1/23/24,2.9,24.8,2358,WNW | 303
1/22/24,4.1,43.1,0107,WNW | 303
1/21/24,12.2,42.8,2210,NW | 315
1/20/24,9.4,43.9,1429,NNW | 337
1/19/24,6.4,28.3,0126,NW | 326
1/18/24,3.3,21.8,2354,NNW | 330
1/17/24,18.2,54.6,0357,ESE | 115
1/16/24,16,50.4,1234,N | 8
1/15/24,10.1,25.4,0625,NNE | 19
1/14/24,17.1,49,0004,WNW | 303
1/13/24,17,59.1,2339,NW | 309
1/12/24,15.8,39,1405,NW | 326
1/11/24,11.8,47.5,0028,NNE | 18
1/10/24,28,75.2,1446,NNW | 335
1/9/24,21.1,42.5,1937,N | 355
1/8/24,8.1,30.9,1405,SSE | 167
1/7/24,,19.7,1121,SSE | 149
1/6/24,16.2,78.3,1635,N | 8
1/5/24,7,23.9,1204,SSE | 163
1/4/24,4.5,16.2,1508,SSE | 158
1/3/24,11.8,40.3,0315,N | 349
1/2/24,14.5,39.8,1017,NW | 316
1/1/24,1.7,7.8,1638,SW | 216
12/31/23,5.1,21.2,1615,NW | 312
12/30/23,5.8,37,0510,NNE | 21
12/29/23,,27.1,1343,N | 4
12/28/23,8.8,29.9,0147,WNW | 296
12/27/23,8.6,41,1009,N | 9
12/26/23,13.3,32,1154,NNW | 327
12/25/23,6.1,23.5,1723,NW | 313
12/24/23,7.4,21.3,0313,NW | 326
12/23/23,,10.6,0711,NNE | 28
12/22/23,2.6,12.3,1540,NW | 312
12/21/23,3.4,11.4,1502,SSE | 168
12/20/23,2.3,27.2,0001,W | 261
12/19/23,6.7,40,1304,WNW | 293
12/18/23,9,48.6,1606,NNE | 29
12/17/23,5,25.8,1354,NW | 306
12/16/23,,23.6,0306,NNE | 30
12/15/23,,23.8,0144,WNW | 298
12/14/23,5.5,20.8,1358,NW | 305
12/13/23,3.7,11.2,1117,SE | 146
12/12/23,4.7,16.4,1448,ESE | 107
12/11/23,9.5,34.1,1324,NW | 326
12/10/23,9.9,22.4,1835,NNW | 337
12/9/23,2.7,13.2,2028,S | 177
12/8/23,6,25.7,1317,NNE | 28
12/7/23,19.4,54.7,0056,N | 8
12/6/23,10.9,66.3,2307,N | 354
12/5/23,3.5,16,1424,NW | 326
12/4/23,4.8,13.5,0015,NW | 313
12/3/23,11,41.7,0324,NE | 44
12/2/23,19.3,43.8,2140,NNW | 336
12/1/23,14.8,34.9,0406,NNE | 17
11/30/23,14.9,28.7,0209,NNW | 333
11/29/23,,29.1,0446,NNW | 327
11/28/23,9.2,24.5,1600,NNW | 344
11/27/23,2.4,10.6,1406,WSW | 242
11/26/23,5,12.8,1454,SSE | 151
11/25/23,3,8.9,1413,SE | 145
11/24/23,2.5,9.1,1424,SE | 135
11/23/23,8.5,28.9,0915,NW | 309
11/22/23,4.8,18.7,1209,NW | 316
11/21/23,3.2,18.6,1110,WNW | 297
11/20/23,8.6,23.9,0033,S | 184
11/19/23,13.3,80.8,0038,NNE | 22
11/18/23,9.3,63.1,2358,NNW | 348
11/17/23,3.8,24.1,1909,W | 270
11/16/23,5,32.6,0615,NW | 317
11/15/23,5.4,33.2,1254,WNW | 288
11/14/23,4.5,26,1202,NNW | 344
11/13/23,6.3,41.8,0234,N | 357
11/12/23,7.2,26.7,1928,NE | 40
11/11/23,7,24.9,0406,NW | 311
11/10/23,6.8,20.8,0413,NW | 311
11/9/23,5.9,17.2,1232,NNW | 330
11/8/23,8.1,18.3,1028,SSE | 158
11/7/23,9.6,39.8,0333,NNE | 26
11/6/23,9.7,43.7,0323,NNE | 18
11/5/23,8.4,45.7,2100,NNE | 13
11/4/23,9.6,31.4,1403,N | 3
11/3/23,7.5,19.1,1445,NW | 318
11/2/23,9.8,24.9,1235,NNW | 340
11/1/23,2.9,14.2,0059,NNW | 328
10/31/23,2.3,7.4,0223,WSW | 251
10/30/23,4.3,14.3,1431,SE | 146
10/29/23,8.8,22.3,0611,S | 170
10/28/23,11.8,32.1,0452,NNW | 329
10/27/23,16.4,30.3,0339,NW | 304
10/26/23,18.3,50,0646,NW | 316
10/25/23,19.1,57.1,1812,NNW | 331
10/24/23,12.3,39.2,0014,NW | 319
10/23/23,6.2,19.9,1109,SE | 139
10/22/23,14,44.2,1728,NW | 305
10/21/23,8.4,25.5,1555,N | 2
10/20/23,7.7,35,1330,NE | 35
10/19/23,4.7,22.6,2313,NW | 318
10/18/23,3,10.9,1822,SW | 231
10/17/23,5.5,20.8,0106,NW | 306
10/16/23,11.9,29,1441,N | 356
10/15/23,9.6,22,1751,NW | 304
10/14/23,10.4,35.2,1016,NW | 319
10/13/23,7.9,29,0723,WNW | 296
10/12/23,5.3,11.1,1330,SE | 133
10/11/23,15,48.3,0641,N | 352
10/10/23,13.9,42.9,0218,NNW | 341
10/9/23,8.7,49.1,2007,WNW | 302
10/8/23,10,21.2,1555,N | 350
10/7/23,3.6,19.2,1856,NW | 314
10/6/23,2.7,12.8,1401,SSE | 149
10/5/23,3.9,12.1,1225,SE | 144
10/4/23,6.4,16.7,1324,SE | 146
10/3/23,6.8,20.4,1635,SSE | 159
10/2/23,3.4,15.6,0339,NW | 326
10/1/23,5.2,21.2,0144,NW | 319
9/30/23,11.1,40.4,0121,NNE | 33
9/29/23,12.6,44.4,2320,N | 4
9/28/23,14,38,0332,NNW | 331
9/27/23,15.5,30.4,0506,NW | 310
9/26/23,12.8,38.4,0357,NNW | 336
9/25/23,7.8,34.8,1621,N | 360
9/24/23,8.4,29.8,1835,NW | 326
9/23/23,12.8,30.8,1540,NNW | 338
9/22/23,13.5,32.2,1023,NW | 311
9/21/23,13.4,37.8,0950,NNW | 337
9/20/23,8.4,39.6,2353,NW | 326
9/19/23,4.8,22.4,1648,NW | 306
9/18/23,7,21.1,1814,NW | 309
9/17/23,5,20,1715,NW | 313
9/16/23,5.2,23.5,1944,WNW | 302
9/15/23,4,17.1,1950,WNW | 292
9/14/23,3.9,20.4,1733,NW | 314
9/13/23,5.1,21.6,1626,NW | 317
9/12/23,,23.3,1610,NNW | 332
9/11/23,10.4,28.4,1747,NW | 311
9/10/23,7.4,20.9,1609,NW | 317
9/9/23,,32.1,1116,NNE | 16
9/8/23,9.2,49.1,1552,NNE | 16
9/7/23,6.9,31.9,1517,NNE | 17
9/6/23,8.2,22.6,1739,NNE | 23
9/5/23,5.8,22.3,2343,WNW | 290
9/4/23,3.3,12.5,0056,NW | 316
9/3/23,7.8,41.9,1521,WNW | 288
9/2/23,8,40.3,0610,NE | 39
9/1/23,12.5,50.3,1209,NNE | 26
8/31/23,11.8,51.1,1806,NNE | 28
8/30/23,5.3,27.1,1324,NNE | 27
8/29/23,,31.9,1156,NNW | 327
8/28/23,4.4,22.9,1755,NW | 312
8/27/23,4.1,16.8,1833,NW | 311
8/26/23,6.8,25.4,1531,NNE | 17
8/25/23,8.2,21.2,1805,NW | 313
8/24/23,5.8,30.5,1322,NW | 326
8/23/23,,17.9,1543,N | 11
8/22/23,4.1,22,0126,NW | 313
8/21/23,6.9,30.6,0500,NNE | 15
8/20/23,3.6,22.3,1949,S | 171
8/19/23,3.5,20.3,0545,NW | 310
8/18/23,6.7,26.5,1210,NNE | 28
8/17/23,6.8,23.5,1705,NNW | 343
8/16/23,4,24.8,1638,NW | 312
8/15/23,2.3,24.8,1421,W | 272
8/14/23,3,16.3,1917,NW | 317
8/13/23,,23.2,1306,W | 281
8/12/23,4.1,22.7,1744,NW | 304
8/11/23,3.7,18.9,1919,NW | 312
8/10/23,,28.9,1813,WNW | 302
8/9/23,13.6,33.1,1540,NNW | 348
8/8/23,15.4,33.9,0204,NW | 312
8/7/23,11,38.8,1310,N | 7
8/6/23,,20.3,1706,N | 356
8/5/23,6.5,27.2,1348,NNE | 30
8/4/23,7.5,29.5,1727,N | 2
8/3/23,6.5,27,1817,NW | 326
8/2/23,9.6,26.3,1910,NNW | 329
8/1/23,13,25.8,1813,N | 357
7/31/23,15.4,30.9,2013,NW | 306
7/30/23,13.7,32,2125,NW | 308
7/29/23,10.9,31.6,1540,NNE | 21
7/28/23,8.7,24.5,2245,NW | 315
7/27/23,6.9,38.6,1321,NNE | 23
7/26/23,9.8,34.4,1508,NNE | 17
7/25/23,7.7,28.9,1529,N | 11
7/24/23,8.4,32.4,1655,NNW | 341
7/23/23,,23,0533,NNW | 335
7/22/23,5.6,24.6,2201,NNW | 343
7/21/23,4.8,22,1642,NW | 305
7/20/23,8.1,22.2,1902,NW | 326
7/19/23,9.6,30.3,1508,NE | 36
7/18/23,14.4,32.6,1706,NNW | 346
7/17/23,9,25,0058,NNW | 339
7/16/23,6.7,25.8,2252,NNW | 336
7/15/23,5.8,26.7,2120,WNW | 296
7/14/23,1.6,13,1639,NNW | 327
7/13/23,9.5,24.1,0102,NW | 310
7/12/23,15.1,26.4,1916,NNW | 327
7/11/23,11.4,27.4,1518,N | 4
7/10/23,8.1,23.8,2009,NW | 316
7/9/23,9.9,26.1,1815,NW | 314
7/8/23,4.9,23.3,1555,NNW | 329
7/7/23,8.2,27.7,1938,NW | 314
7/6/23,10.6,26.2,2046,NW | 312
7/5/23,8,28.7,1803,NW | 318
7/4/23,5.4,23.3,1839,NW | 316
7/3/23,11.8,30.9,2055,NW | 306
7/2/23,6.8,25.5,2217,NNW | 345
7/1/23,3.5,20.6,2035,WNW | 299
6/30/23,2.3,17.9,1905,NW | 326
6/29/23,4.5,18.1,1113,SSE | 151
6/28/23,4.6,29.3,1736,NNE | 32
6/27/23,3.5,17.9,1934,NW | 309
6/26/23,7.6,30.6,1748,NW | 308
6/25/23,9.8,26.9,1855,NNW | 334
6/24/23,5.8,22,2011,NNW | 333
6/23/23,,21.3,0345,NW | 314
6/22/23,10.3,33.8,2256,N | 349
6/21/23,5,20.6,1854,NW | 304
6/20/23,12,34.1,0248,N | 353
6/19/23,9.7,49.1,0908,NNE | 28
6/18/23,14.6,55.4,1606,N | 355
6/17/23,12.8,36.6,2108,N | 357
6/16/23,3.7,20.2,1735,NW | 326
6/15/23,7.4,18.6,1550,S | 170
6/14/23,7.2,26.2,1607,SSE | 162
6/13/23,4.6,23.1,1834,SSE | 164
6/12/23,1.8,17.1,1740,SSE | 150
6/11/23,0,1.7,1326,SE | 139
6/10/23,0,2.1,1327,ESE | 113
6/9/23,0,0,0101,ENE | 67
6/8/23,0,0,0101,N | 11
6/7/23,0,0,0101,NW | 304
6/6/23,0,0,0101,NW | 314
6/5/23,0,0,0101,NNW | 345
6/4/23,0,0,0101,WNW | 288
6/3/23,0,0,0101,NNW | 336
6/2/23,0,0.2,0846,SE | 126
6/1/23,0,0.6,1559,S | 177
5/31/23,0,0,0101,NNW | 344
5/30/23,0,0,0101,W | 278
5/29/23,0,3.1,1613,ESE | 118
5/28/23,0,6.4,0708,N | 356
5/27/23,0,11.3,0709,SSE | 158
5/26/23,0,14.8,1527,N | 357
5/25/23,0,3.5,0714,NW | 326
5/24/23,0,1.3,1120,ESE | 111
5/23/23,0,2.5,1513,NNE | 22
5/22/23,0,1.3,1231,SE | 136
5/21/23,0,7.9,0651,NW | 326
5/20/23,0,9.9,0709,NNW | 336
5/19/23,0,6,0723,N | 3
5/18/23,0,3.3,0626,SE | 131
5/17/23,0,8.2,1509,SSE | 163
5/16/23,0,12.8,0639,N | 355
5/15/23,0,2.7,1816,SSE | 163
5/14/23,0,1.5,0724,S | 172
5/13/23,0,3.7,1623,SSE | 165
5/12/23,0.6,7.8,0110,NW | 305
5/11/23,5.4,19.9,1655,ESE | 113
5/10/23,6.7,21.2,1512,ESE | 114
5/9/23,7,19.4,0423,ESE | 114
5/8/23,15.9,38.7,1732,SSE | 167
5/7/23,16.9,39.3,1500,SE | 142
5/6/23,11.8,39.7,1918,SSE | 156
5/5/23,16.1,32,0047,E | 101
5/4/23,11.8,36.1,1513,S | 169
5/3/23,5,21.1,1555,E | 92
5/2/23,9.8,37.6,0107,SSE | 164
5/1/23,12.3,44.6,2041,SSE | 166
4/30/23,11.5,38.7,2118,SSE | 152
4/29/23,10.7,34.3,1801,S | 184
4/28/23,6.9,20,2032,ESE | 120
4/27/23,2.5,9.8,1032,NW | 317
4/26/23,4,12.3,1458,SE | 127
4/25/23,4.3,17.4,1521,N | 357
4/24/23,15.8,35.2,2002,ESE | 123
4/23/23,15,33,1957,ESE | 117
4/22/23,3.7,19.7,2324,SE | 125
4/21/23,4.1,12.7,1024,NNW | 345
4/20/23,7.6,26.4,0409,E | 101
4/19/23,13,31,0223,SE | 146
4/18/23,15.3,59.6,0552,S | 179
4/17/23,15,48.7,1521,SE | 128
